Regional Weather Roundup
Issued by NWS Goodland, KS

Home | Current Version | Previous Version | Graphics & Text | Print | Product List | Glossary On
Versions: 1 2 3 4 5 6 7 8 9 10 11 12 13 14 15 16 17 18 19 20 21 22 23 24 25 26 27 28 29 30 31 32 33 34 35 36 37 38 39 40 41 42 43 44 45 46 47 48 49 50
000
ASUS43 KGLD 120859
RWRGLD

GOODLAND FORECAST AREA HOURLY WEATHER ROUNDUP
NATIONAL WEATHER SERVICE GOODLAND KS
300 AM MDT SAT JUL 12 2014

...OFFICIAL OBSERVATIONS...

CITY           SKY/WX    TMP DP  RH WIND       PRES   REMARKS
GOODLAND KS    MOCLDY    68  62  81 CALM      30.06S
HILL CITY KS   MOCLDY    75  59  57 SW9       30.02R
IMPERIAL NEB   CLOUDY    69  66  90 SW6       30.07R
MCCOOK NEB     CLOUDY    74  69  85 NE8       30.01R
AKRON CO       CLOUDY    65  64  97 NW12      30.17S FOG
BURLINGTON CO  MOCLDY    64  60  87 NW8       30.10R
LIMON CO       PTCLDY    64  61  90 NW10      30.20S
$$

...UNOFFICIAL OBSERVATIONS...

CITY           SKY/WX    TMP DP  RH WIND       PRES   REMARKS
COLBY KS       CLEAR     72  63  73 S7        30.04F
GOVE KS          N/A     73  32  22 CALM        N/A
LENORA KS        N/A     72  32  23 MISG        N/A
NORTON KS      CLEAR     73  54  49 S6        30.00F
SHARON SPRINGS   N/A     71  56  59 S10         N/A
KIT CARSON CO    N/A     68  57  68 CALM        N/A
YUMA CO          N/A     66  63  89 NW13        N/A
$$


USA.gov is the U.S. government's official web portal to all federal, state and local government web resources and services.